Home   Weather   Bourges   Past weeks

Flag for France Past Weather in Bourges, Centre-Val de Loire, France — Yesterday and Last 2 Weeks

Now
35 °F

Low clouds.


Feels Like: 25 °F
Forecast: 32 / 41 °F
Wind: 14 mph from Northeast

Location: Bourges

Current Time: Dec 2, 2016 at 8:57:59 pm

Latest Report: Dec 2, 2016 at 8:00 pm


Visibility: 3 mi

Pressure: 30.19 "Hg

Humidity: 95%

Dew Point: 33 °F

Location of BourgesLocation

Past Weather in Bourges — Graph

°F

Bourges Temperature Yesterday

Maximum temperature yesterday: 34 °F (at 3:00 pm)
Minimum temperature yesterday: 25 °F (at 9:00 am)
Average temperature yesterday: 30 °F

High & Low Weather Summary for the Past Weeks

 TemperatureHumidityPressure
High62 °F (Nov 21, 12:00 pm)97% (Dec 1, 2:00 pm)30.59 "Hg (Dec 1, 2:00 pm)
Low24 °F (Dec 2, 7:00 am)50% (Nov 28, 5:00 pm)29.35 "Hg (Nov 21, 7:00 am)
Average44 °F80%29.98 "Hg
* Reported Nov 17 7:00 pm — Dec 2 7:00 pm, Bourges, Weather by CustomWeather, © 2016

Note: Actual official high and low records may vary slightly from our data, if they occured in-between our weather recording intervals... More about our weather records

Advertising

Bourges Weather History for the Previous 24 Hours

Scroll right to see more
 ConditionsComfort  
Time TempWeatherWind HumidityBarometerVisibility
7:00 pm
Fri, Dec 2
33 °FChilly.5 mph95%30.20 "Hg2 mi
6:00 pm32 °FChilly.1 mph93%30.20 "Hg1 mi
5:00 pm34 °FPassing clouds.2 mph92%30.20 "Hg4 mi
4:00 pm36 °FScattered clouds.6 mph92%30.20 "Hg4 mi
3:00 pm35 °FLow clouds.7 mph95%30.22 "Hg4 mi
2:00 pm34 °FFog.8 mph96%30.24 "Hg3 mi
1:00 pm32 °FFog.8 mph97%30.26 "Hg2 mi
12:00 pm31 °FLow clouds.8 mph96%30.28 "Hg2 mi
11:00 am30 °FLow clouds.3 mph95%30.30 "Hg3 mi
10:00 am28 °FLow clouds.2 mph94%30.30 "Hg3 mi
9:00 am25 °FFog.2 mph93%30.31 "Hg2 mi
8:00 am24 °FFog.3 mph93%30.30 "Hg1 mi
7:00 am24 °FIce fog.2 mph93%30.29 "Hg1 mi
6:00 am24 °FFog.3 mph94%30.30 "Hg0 mi
5:00 am25 °FIce fog.3 mph95%30.31 "Hg0 mi
4:00 am25 °FIce fog.5 mph95%30.32 "Hg0 mi
3:00 am25 °FIce fog.3 mph94%30.33 "Hg0 mi
2:00 am26 °FIce fog.2 mph95%30.34 "Hg0 mi
1:00 am27 °FIce fog.3 mph95%30.35 "Hg0 mi
12:00 am27 °FIce fog.3 mph96%30.37 "Hg0 mi
11:00 pm
Thu, Dec 1
27 °FIce fog.1 mph96%30.37 "Hg0 mi
10:00 pm28 °FIce fog.2 mph96%30.37 "Hg0 mi
9:00 pm29 °FIce fog.2 mph96%30.38 "Hg0 mi
8:00 pm30 °FIce fog.2 mph97%30.38 "Hg0 mi
Weather by CustomWeather, © 2016

See weather overviewHow to use our weather pages